Stations météo

réclame
Mon MeteoGroup
Trier-Petrisberg, Allemagne (10609): Température de l'air & dewpoint: 07.11.2019 06:00:00 - 13.11.2019 06:00:00 (CET)Trier-Petrisberg, Allemagne (10609): Température de l'air 5cm & Température de l'air -5cm: 07.11.2019 06:00:00 - 13.11.2019 06:00:00 (CET)Trier-Petrisberg, Allemagne (10609): Température de l'air -20cm & Température de l'air -100cm: 07.11.2019 06:00:00 - 13.11.2019 06:00:00 (CET)Trier-Petrisberg, Allemagne (10609): Vitesse du vent & gusts: 07.11.2019 06:00:00 - 13.11.2019 06:00:00 (CET)Trier-Petrisberg, Allemagne (10609): Direction du vent: 07.11.2019 06:00:00 - 13.11.2019 06:00:00 (CET)Trier-Petrisberg, Allemagne (10609): reduced air pressure: 07.11.2019 06:00:00 - 13.11.2019 06:00:00 (CET)Trier-Petrisberg, Allemagne (10609): visibility: 07.11.2019 06:00:00 - 13.11.2019 06:00:00 (CET)Trier-Petrisberg, Allemagne (10609): Ensoleillement: 07.11.2019 06:00:00 - 13.11.2019 06:00:00 (CET)Trier-Petrisberg, Allemagne (10609): Quantités de précipitations: 07.11.2019 06:00:00 - 13.11.2019 06:00:00 (CET)
Date & Time tt [°C] td [°C] tt 5cm [°C] tt -5cm [°C] tt -20cm [°C] tt -100cm [°C] ff [km/h] ff [knt] fx [km/h] fx [knt] dd ppp [hPa] vv [km] sd [min] rr [mm]
13.11.2019 06:00:00 2,6 1,4 2,6 4,5 6,6 10,5 13 7 24 13 S 1003,1 26 0 0,0
13.11.2019 05:00:00 2,7 1,6 2,7 4,4 6,6 10,5 13 7 30 16 SSW 1002,8 22 0 0,0
13.11.2019 04:00:00 2,8 1,6 2,7 4,3 6,7 10,5 21 12 33 18 SW 1002,5 29 0 0,0
13.11.2019 03:00:00 2,7 1,5 2,5 4,2 6,7 10,5 12 7 25 14 SW 1003,6 26 0 0,0
13.11.2019 02:00:00 2,0 1,1 2,1 4,1 6,8 10,5 11 6 19 10 SW 1004,1 18 0 0,0
13.11.2019 01:00:00 1,8 1,0 1,8 3,9 6,9 10,5 8 4 13 7 SSE 1003,9 41 0 0,0
13.11.2019 00:00:00 1,8 1,0 0,7 4,3 7,0 10,5 10 5 13 7 SW 1003,6 25 0 0,0
12.11.2019 23:00:00 2,6 1,7 2,6 4,5 7,2 10,6 10 6 21 11 SSW 1003,6 27 0 0,0
12.11.2019 22:00:00 2,5 1,5 1,7 4,3 7,3 10,6 10 5 23 12 SSW 1003,8 33 0 0,0
12.11.2019 21:00:00 2,7 1,6 1,9 4,7 7,4 10,6 13 7 18 10 S 1003,8 38 0 0,0
12.11.2019 20:00:00 2,9 1,6 1,2 5,3 7,5 10,6 13 7 21 12 SW 1004,2 37 0 0,0
12.11.2019 19:00:00 3,5 2,2 2,3 5,8 7,6 10,6 13 7 27 15 SSW 1004,4 44 0 0,1
12.11.2019 18:00:00 4,1 2,7 4,0 6,2 7,6 10,6 16 8 41 22 SSW 1004,5 26 0 0,3
12.11.2019 17:00:00 4,7 1,8 4,1 6,6 7,6 10,6 21 11 41 22 SSW 1004,0 40 12 0,0
12.11.2019 16:00:00 5,3 2,2 4,7 7,2 7,5 10,6 25 14 44 24 SSW 1003,6 53 9 0,0
12.11.2019 15:00:00 5,7 3,8 7,0 7,0 7,4 10,6 26 14 52 28 SSW 1003,5 46 4 0,0
12.11.2019 14:00:00 5,2 2,9 5,3 7,1 7,3 10,6 30 16 48 26 SSW 1003,6 34 1 0,0
12.11.2019 13:00:00 4,8 2,7 5,2 6,7 7,2 10,7 30 16 52 28 SSW 1004,2 44 0 0,0
12.11.2019 12:00:00 4,8 3,2 5,1 6,4 7,1 10,7 32 17 52 28 SSW 1004,7 42 0 0,1
12.11.2019 11:00:00 4,6 3,5 4,8 6,1 7,1 10,7 29 16 53 28 S 1004,7 20 0 0,4
12.11.2019 10:00:00 4,8 3,0 4,9 5,6 7,1 10,7 34 18 55 30 S 1004,4 37 0 0,1
12.11.2019 09:00:00 4,3 2,7 4,0 5,2 7,1 10,7 34 18 47 25 S 1005,0 38 0 0,1
12.11.2019 08:00:00 4,0 2,5 3,7 5,1 7,2 10,7 29 16 50 27 S 1005,4 15 0 0,1
12.11.2019 07:00:00 3,9 2,7 3,6 5,1 7,2 10,7 26 14 46 25 S 1005,8 27 0 0,3
12.11.2019 06:00:00 4,0 2,1 3,4 5,2 7,3 10,7 29 16 48 26 S 1005,9 16 0 0,1
12.11.2019 05:00:00 4,1 2,3 3,8 5,2 7,3 10,7 26 14 42 23 SSW 1006,5 36 0 0,0
12.11.2019 04:00:00 4,1 2,2 3,7 5,2 7,4 10,7 32 17 48 26 SSW 1006,9 33 0 0,0
12.11.2019 03:00:00 4,2 2,5 3,8 5,1 7,4 10,7 26 14 43 23 SSW 1006,9 30 0 0,0
12.11.2019 02:00:00 4,0 2,5 3,5 5,0 7,6 10,7 27 14 41 22 SSW 1007,0 34 0 0,0
12.11.2019 01:00:00 3,8 2,6 3,4 5,1 7,7 10,7 16 9 35 19 SSW 1007,3 47 0 0,0
12.11.2019 00:00:00 3,3 2,3 1,7 5,5 7,8 10,7 12 6 25 14 SSW 1007,1 48 0 0,0
11.11.2019 23:00:00 4,0 2,8 3,4 5,9 7,8 10,7 15 8 23 12 SSW 1006,5 50 0 0,0
11.11.2019 22:00:00 4,4 3,8 4,1 6,2 7,9 10,7 11 6 21 12 S 1006,1 40 0 0,0
11.11.2019 21:00:00 4,3 3,6 4,3 6,4 8,0 10,7 12 7 26 14 S 1006,0 45 0 0,2
11.11.2019 20:00:00 4,2 3,2 4,3 6,6 8,0 10,7 10 5 48 26 SSW 1005,5 13 0 0,6
11.11.2019 19:00:00 4,4 3,2 4,4 7,0 8,1 10,8 26 14 37 20 SSW 1005,4 20 0 1,5
11.11.2019 18:00:00 4,7 3,3 4,6 7,5 8,1 10,8 20 11 42 23 S 1005,0 9 0 0,3
11.11.2019 17:00:00 5,8 2,4 5,7 8,1 8,0 10,8 24 13 40 21 S 1004,3 41 0 0,0
11.11.2019 16:00:00 6,4 2,4 6,6 8,8 7,8 10,8 29 16 39 21 S 1004,6 49 0 0,0
11.11.2019 15:00:00 6,5 2,6 7,2 9,3 7,6 10,8 24 13 40 21 S 1005,6 42 9 0,0
11.11.2019 14:00:00 6,8 2,5 8,1 9,2 7,3 10,8 24 13 37 20 S 1006,6 42 46 0,0
11.11.2019 13:00:00 6,4 2,5 8,3 8,3 7,0 10,9 21 12 35 19 SSW 1007,9 36 46 0,0
11.11.2019 12:00:00 5,7 2,4 7,5 7,0 6,9 10,9 22 12 41 22 S 1009,1 25 26 0,0
11.11.2019 11:00:00 5,1 2,7 6,9 5,7 6,8 10,9 21 11 31 17 SSE 1010,2 25 9 0,0
11.11.2019 10:00:00 3,3 1,6 4,1 5,1 6,8 10,9 16 9 24 13 SSE 1011,3 26 0 0,0
11.11.2019 09:00:00 2,8 1,7 3,1 4,5 6,9 10,9 10 5 20 11 SSW 1012,2 15 37 0,0
11.11.2019 08:00:00 1,8 1,4 1,3 4,6 6,9 10,9 6 3 8 5 SW 1012,3 4,3 0 0,0
11.11.2019 07:00:00 2,3 1,9 2,6 4,7 6,9 10,9 4 2 7 4 SSE 1013,0 2,2 0 0,0
11.11.2019 06:00:00 2,0 1,5 2,4 4,7 7,0 11,0 4 2 6 4 E 1013,9 6 0 0,0
11.11.2019 05:00:00 1,6 1,2 2,1 4,7 7,0 11,0 4 2 9 5 SE 1014,9 4,1 0 0,0
11.11.2019 04:00:00 1,5 1,2 2,0 4,8 7,0 11,0 4 2 8 5 S 1015,2 0,3 0 0,0
11.11.2019 03:00:00 1,0 0,6 1,5 4,8 7,1 11,0 4 2 11 6 ESE 1015,6 2,2 0 0,0
11.11.2019 02:00:00 1,0 0,6 1,6 4,9 7,1 11,0 5 3 11 6 NNE 1015,9 8 0 0,0
11.11.2019 01:00:00 1,1 0,8 1,7 5,0 7,2 11,0 4 2 8 4 E 1016,8 0,2 0 0,0
11.11.2019 00:00:00 1,1 0,8 1,6 5,1 7,2 11,1 3 2 10 6 E 1016,4 0,1 0 0,0
10.11.2019 23:00:00 1,5 1,2 2,1 5,3 7,2 11,1 5 3 12 6 SE 1016,7 0,1 0 0,0
10.11.2019 22:00:00 2,2 1,9 2,7 5,4 7,3 11,1 6 3 9 5 E 1016,9 0,1 0 0,0
10.11.2019 21:00:00 2,3 1,9 2,7 5,5 7,3 11,1 4 2 8 5 N 1017,0 0,4 0 0,0
10.11.2019 20:00:00 2,6 2,2 3,1 5,6 7,3 11,1 4 2 10 5 NE 1016,7 1,6 0 0,0
10.11.2019 19:00:00 2,5 2,1 3,0 5,8 7,3 11,2 6 4 11 6 ENE 1016,8 1,6 0 0,0
10.11.2019 18:00:00 2,4 1,9 2,9 6,0 7,3 11,2 4 2 7 4 E 1016,5 1,0 0 0,0
10.11.2019 17:00:00 2,5 1,8 3,1 6,3 7,2 11,2 3 2 9 5 E 1015,8 6 0 0,0
10.11.2019 16:00:00 2,9 2,1 3,8 6,6 7,1 11,2 5 3 8 5 ENE 1015,0 12 0 0,0
10.11.2019 15:00:00 2,7 2,1 3,7 6,4 7,0 11,3 5 3 10 6 N 1014,5 8 0 0,0
10.11.2019 14:00:00 2,4 1,8 3,8 6,3 6,9 11,3 5 3 10 5 NNW 1014,2 2,6 0 0,0
10.11.2019 13:00:00 2,3 1,7 3,4 6,0 6,7 11,3 4 2 13 7 N 1013,7 2,8 0 0,0
10.11.2019 12:00:00 2,0 1,7 3,6 5,5 6,6 11,3 8 5 19 11 NE 1013,5 0,4 0 0,0
10.11.2019 11:00:00 1,4 1,0 2,6 4,8 6,6 11,4 11 6 20 11 NE 1013,3 0,2 0 0,0
10.11.2019 10:00:00 1,0 0,7 1,9 4,2 6,6 11,4 11 6 22 12 NE 1012,8 0,2 0 0,0
10.11.2019 09:00:00 0,3 0,0 1,0 3,7 6,6 11,4 10 5 22 12 NNE 1012,3 0,2 0 0,0
10.11.2019 08:00:00 -0,2 -0,5 0,3 3,6 6,7 11,4 10 5 18 10 NE 1011,6 0,2 0 0,0
10.11.2019 07:00:00 -0,2 -0,4 0,3 3,6 6,7 11,4 9 5 18 10 NE 1010,7 0,2 0 0,0
10.11.2019 06:00:00 -0,1 -0,4 0,4 3,5 6,8 11,4 9 5 14 8 NNE 1010,3 0,1 0 0,0
10.11.2019 05:00:00 -0,2 -0,4 0,4 3,4 6,9 11,5 9 5 14 8 NNE 1009,7 0,1 0 0,0
10.11.2019 04:00:00 -0,2 -0,4 0,1 3,3 6,9 11,5 7 4 14 7 NNE 1009,4 0,1 0 0,0
10.11.2019 03:00:00 -0,2 -0,4 0,0 3,1 7,1 11,5 6 4 16 9 N 1009,5 0,1 0 0,0
10.11.2019 02:00:00 -0,3 -0,6 0,0 2,9 7,3 11,5 8 4 14 8 NNE 1009,6 0,1 0 0,0
10.11.2019 01:00:00 -0,4 -1,0 -1,2 3,0 7,5 11,5 9 5 12 7 N 1009,5 0,4 0 0,0
10.11.2019 00:00:00 0,9 0,1 -1,4 3,3 7,7 11,5 5 3 10 5 S 1009,5 7 0 0,0
09.11.2019 23:00:00 0,8 0,0 -1,0 3,6 7,9 11,5 5 3 8 4 NNE 1009,4 5 0 0,0
09.11.2019 22:00:00 1,8 0,7 -0,5 4,2 8,1 11,6 4 2 5 3 NE 1009,5 12 0 0,0
09.11.2019 21:00:00 2,1 1,1 0,2 4,7 8,3 11,6 0 0 9 5 N 1009,8 11 0 0,0
09.11.2019 20:00:00 2,6 1,3 0,3 5,5 8,4 11,6 4 2 16 8 SE 1009,8 16 0 0,0
09.11.2019 19:00:00 3,2 1,7 1,1 6,4 8,5 11,6 9 5 17 9 S 1010,0 23 0 0,0
09.11.2019 18:00:00 4,3 2,9 2,7 7,0 8,5 11,6 12 6 19 10 SSW 1009,9 21 0 0,0
09.11.2019 17:00:00 5,1 3,2 4,4 7,5 8,4 11,6 11 6 20 11 SSW 1009,7 32 0 0,0
09.11.2019 16:00:00 5,4 3,4 5,4 7,7 8,4 11,7 13 7 21 12 S 1009,8 28 0 0,0
09.11.2019 15:00:00 5,4 3,5 5,7 7,6 8,3 11,7 12 7 18 10 S 1010,3 29 0 0,0
09.11.2019 14:00:00 4,6 3,2 5,0 7,6 8,2 11,7 14 7 25 13 SSW 1010,8 23 0 0,0
09.11.2019 13:00:00 4,3 2,9 5,0 7,5 8,1 11,7 19 10 27 15 S 1010,9 22 0 0,0
09.11.2019 12:00:00 4,9 2,9 5,6 7,1 8,1 11,7 14 8 26 14 SW 1011,2 33 0 0,0
09.11.2019 11:00:00 4,6 3,2 5,3 6,7 8,0 11,8 15 8 23 13 SSW 1011,6 23 0 0,0
09.11.2019 10:00:00 3,7 2,9 4,5 6,1 8,0 11,8 9 5 21 11 S 1011,5 11 0 0,0
09.11.2019 09:00:00 3,0 2,4 3,5 5,8 8,1 11,8 12 6 23 12 SSW 1011,8 7 0 0,0
09.11.2019 08:00:00 3,1 2,6 3,6 5,9 8,1 11,8 11 6 18 10 SW 1011,6 8 0 0,0
09.11.2019 07:00:00 3,2 2,9 3,6 5,8 8,1 11,8 7 4 13 7 SSW 1011,2 0,2 0 0,0
09.11.2019 06:00:00 2,9 2,6 3,4 5,8 8,2 11,8 10 5 13 7 SSW 1011,1 0,1 0 0,0
09.11.2019 05:00:00 2,8 2,5 3,1 5,8 8,2 11,8 6 3 9 5 WSW 1010,8 0,1 0 0,0
09.11.2019 04:00:00 3,0 2,7 3,4 5,8 8,3 11,9 4 2 6 4 SSE 1010,5 0,1 0 0,0
09.11.2019 03:00:00 2,9 2,6 3,4 5,8 8,4 11,9 5 3 9 5 SSW 1010,4 0,1 0 0,0
09.11.2019 02:00:00 2,6 2,4 3,0 5,8 8,4 11,9 4 2 6 3 SE 1010,3 0,1 0 0,0
09.11.2019 01:00:00 2,9 2,6 3,3 5,7 8,5 11,9 5 3 8 4 SSW 1010,1 0,1 0 0,0
09.11.2019 00:00:00 2,9 2,6 3,2 5,5 8,7 11,9 5 3 7 4 S 1009,7 0,1 0 0,0
08.11.2019 23:00:00 3,4 3,1 2,9 5,4 8,9 11,9 4 2 6 4 WSW 1009,4 0,8 0 0,0
08.11.2019 22:00:00 3,7 3,2 1,4 5,8 9,0 11,9 5 3 7 4 SSE 1009,2 18 0 0,0
08.11.2019 21:00:00 4,3 3,9 2,3 6,4 9,2 12,0 5 3 8 4 S 1009,0 13 0 0,0
08.11.2019 20:00:00 4,4 3,4 2,2 7,1 9,3 12,0 3 2 4 2 NNW 1008,4 27 0 0,0
08.11.2019 19:00:00 5,6 3,8 4,1 7,7 9,4 12,0 3 2 9 5 ESE 1007,9 26 0 0,0
08.11.2019 18:00:00 5,5 4,1 4,2 8,5 9,4 12,0 8 4 10 5 ESE 1007,6 34 0 0,0
08.11.2019 17:00:00 6,6 3,8 5,1 9,4 9,3 12,0 5 3 9 5 N 1006,9 44 0 0,0
08.11.2019 16:00:00 7,7 4,2 7,4 10,2 9,1 12,1 7 4 12 6 NE 1006,5 46 0 0,0
08.11.2019 15:00:00 8,2 4,4 8,2 10,7 8,8 12,1 9 5 13 7 NE 1005,8 70 39 0,0
08.11.2019 14:00:00 8,2 4,2 9,0 10,3 8,5 12,1 6 4 11 6 NE 1005,5 39 34 0,0
08.11.2019 13:00:00 8,1 3,7 9,1 9,6 8,2 12,1 5 3 11 6 N 1005,7 54 54 0,0
08.11.2019 12:00:00 6,8 3,0 7,3 8,3 8,0 12,2 6 4 13 7 NNE 1006,0 35 40 0,0
08.11.2019 11:00:00 4,8 2,6 5,7 6,3 7,9 12,2 5 3 14 7 NNE 1006,6 35 10 0,0
08.11.2019 10:00:00 3,6 2,1 4,6 5,5 7,9 12,2 5 3 11 6 NNW 1006,5 19 11 0,0
08.11.2019 09:00:00 3,2 2,2 3,1 4,9 8,0 12,2 5 3 10 6 NNE 1006,3 13 1 0,0
08.11.2019 08:00:00 3,0 2,4 2,9 4,5 8,1 12,3 4 2 13 7 NE 1006,1 15 0 0,0
08.11.2019 07:00:00 2,3 1,6 1,4 4,4 8,2 12,3 8 5 16 8 N 1005,8 13 0 0,0
08.11.2019 06:00:00 3,0 2,1 2,2 4,6 8,3 12,3 10 6 14 8 N 1005,4 17 0 0,0
08.11.2019 05:00:00 2,9 1,9 1,9 4,6 8,4 12,3 4 2 13 7 N 1005,3 19 0 0,0
08.11.2019 04:00:00 3,4 2,2 2,1 4,6 8,6 12,3 12 6 15 8 N 1005,3 27 0 0,0
08.11.2019 03:00:00 3,6 2,3 2,2 4,4 8,7 12,3 7 4 16 9 N 1005,4 27 0 0,0
08.11.2019 02:00:00 3,5 2,2 0,9 4,5 9,0 12,3 6 4 11 6 S 1005,6 29 0 0,0
08.11.2019 01:00:00 3,6 2,0 0,9 4,8 9,2 12,3 10 6 20 11 SE 1005,6 39 0 0,0
08.11.2019 00:00:00 3,5 2,2 0,7 5,2 9,4 12,3 4 2 13 7 SE 1005,1 39 0 0,0
07.11.2019 23:00:00 3,1 2,3 0,7 5,6 9,6 12,3 8 4 13 7 SSE 1005,1 28 0 0,0
07.11.2019 22:00:00 4,5 3,0 1,8 6,1 9,8 12,4 8 4 13 7 SW 1004,8 36 0 0,0
07.11.2019 21:00:00 5,1 3,1 2,0 6,7 10,0 12,4 10 5 15 8 SSW 1004,7 41 0 0,0
07.11.2019 20:00:00 5,2 3,2 3,0 7,3 10,1 12,4 11 6 29 16 S 1004,1 43 0 0,0
07.11.2019 19:00:00 6,7 3,1 4,3 8,0 10,2 12,4 20 11 35 19 SSW 1003,4 46 0 0,0
07.11.2019 18:00:00 6,7 4,1 5,2 8,5 10,3 12,4 13 7 33 18 SSW 1002,6 44 0 0,0
07.11.2019 17:00:00 8,0 4,7 6,7 9,2 10,3 12,4 22 12 37 20 SSW 1001,6 52 42 0,0
07.11.2019 16:00:00 8,9 5,6 8,9 9,7 10,3 12,4 23 13 53 29 SW 1000,4 60 18 0,7
07.11.2019 15:00:00 8,4 6,2 8,1 9,8 10,2 12,4 26 14 60 33 SSW 999,6 51 0 0,1
07.11.2019 14:00:00 8,8 6,6 8,7 9,6 10,1 12,4 32 18 48 26 S 998,2 67 1 0,0
07.11.2019 13:00:00 8,1 6,4 7,9 9,1 10,1 12,4 37 20 63 34 S 997,8 40 0 0,2
07.11.2019 12:00:00 7,4 6,0 7,3 8,7 10,2 12,4 26 14 43 23 S 997,7 8 0 0,9
07.11.2019 11:00:00 6,9 5,4 6,6 8,6 10,2 12,4 26 14 58 31 SSE 998,1 11 0 2,4
07.11.2019 10:00:00 7,6 5,8 7,3 8,7 10,3 12,5 29 15 42 23 SSE 998,2 16 0 0,4
07.11.2019 09:00:00 8,0 5,3 7,4 8,5 10,4 12,5 20 11 34 19 SSE 998,7 40 0 0,0
07.11.2019 08:00:00 7,7 5,5 6,7 8,5 10,4 12,5 19 10 32 17 SSE 998,9 38 0 0,0
07.11.2019 07:00:00 8,1 5,7 7,3 8,7 10,5 12,5 21 12 34 18 SSE 999,4 43 0 0,0
07.11.2019 06:00:00 8,2 5,7 7,5 8,9 10,6 12,5 24 13 36 19 SSE 999,9 39 0 0,0

tt = Température de l'air
td = dewpoint
tt 5cm = Température de l'air 5cm
tt -5cm = Température de l'air -5cm
tt -20cm = Température de l'air -20cm
tt -100cm = Température de l'air -100cm
ff = Vitesse du vent
fx = gusts
dd = Direction du vent
ppp = reduced air pressure
vv = visibility
sd = Ensoleillement
rr = Quantités de précipitations

stations d'obs. à proximité